Time,TemperatureF,DewpointF,PressureIn,WindDirection,WindDirectionDegrees,WindSpeedMPH,WindSpeedGustMPH,Humidity,HourlyPrecipIn,Conditions,Clouds,dailyrainin,SoftwareType,DateUTC
2013-11-20 00:03:00,50.4,12.7,30.10,SSE,157,3.4,3.4,22,0.00,,,0.00,WUHU21623XXSP,2013-11-20 06:03:00,
2013-11-20 00:15:00,50.5,11.9,30.09,SE,135,1.6,1.8,21,0.00,,,0.00,WUHU21623XXSP,2013-11-20 06:15:00,
2013-11-20 00:20:00,50.7,12.1,30.09,SSE,157,7.8,7.8,21,0.00,,,0.00,WUHU21623XXSP,2013-11-20 06:20:00,
2013-11-20 00:25:00,50.7,12.1,30.09,SSE,157,0.0,7.8,21,0.00,,,0.00,WUHU21623XXSP,2013-11-20 06:25:00,
2013-11-20 00:30:00,50.5,11.9,30.09,SE,135,0.0,0.4,21,0.00,,,0.00,WUHU21623XXSP,2013-11-20 06:30:00,
2013-11-20 00:35:00,50.5,11.9,30.09,SSE,157,0.0,0.4,21,0.00,,,0.00,WUHU21623XXSP,2013-11-20 06:35:00,
2013-11-20 00:40:00,50.5,11.9,30.09,SSE,157,0.0,0.0,21,0.00,,,0.00,WUHU21623XXSP,2013-11-20 06:40:00,
2013-11-20 00:45:00,50.5,11.9,30.09,SE,135,0.0,6.5,21,0.00,,,0.00,WUHU21623XXSP,2013-11-20 06:45:00,
2013-11-20 00:50:00,50.5,11.9,30.09,South,180,0.0,6.5,21,0.00,,,0.00,WUHU21623XXSP,2013-11-20 06:50:00,
2013-11-20 00:55:00,50.5,11.9,30.10,South,180,0.0,0.0,21,0.00,,,0.00,WUHU21623XXSP,2013-11-20 06:55:00,
2013-11-20 01:00:00,50.5,11.9,30.09,SSE,157,0.0,1.3,21,0.00,,,0.00,WUHU21623XXSP,2013-11-20 07:00:00,
2013-11-20 01:05:00,50.5,11.9,30.09,SSE,157,0.0,1.3,21,0.00,,,0.00,WUHU21623XXSP,2013-11-20 07:05:00,
2013-11-20 01:12:00,50.7,11.2,30.10,SSE,157,4.3,4.3,20,0.00,,,0.00,WUHU21623XXSP,2013-11-20 07:12:00,
2013-11-20 01:17:00,50.7,12.1,30.10,SSE,157,1.6,4.3,21,0.00,,,0.00,WUHU21623XXSP,2013-11-20 07:17:00,
2013-11-20 01:22:00,50.5,11.9,30.10,SW,225,0.0,1.6,21,0.00,,,0.00,WUHU21623XXSP,2013-11-20 07:22:00,
2013-11-20 01:27:00,50.5,11.9,30.10,SSE,157,2.0,2.0,21,0.00,,,0.00,WUHU21623XXSP,2013-11-20 07:27:00,
2013-11-20 01:32:00,50.4,11.8,30.09,SSE,157,0.0,2.0,21,0.00,,,0.00,WUHU21623XXSP,2013-11-20 07:32:00,
2013-11-20 01:37:00,50.5,11.9,30.10,SSE,157,0.0,6.7,21,0.00,,,0.00,WUHU21623XXSP,2013-11-20 07:37:00,
2013-11-20 01:42:00,50.4,11.8,30.09,SSE,157,0.0,6.7,21,0.00,,,0.00,WUHU21623XXSP,2013-11-20 07:42:00,
2013-11-20 01:47:00,50.2,12.6,30.09,SSE,157,0.0,4.9,22,0.00,,,0.00,WUHU21623XXSP,2013-11-20 07:47:00,
2013-11-20 01:52:00,49.8,12.3,30.09,South,180,0.0,0.0,22,0.00,,,0.00,WUHU21623XXSP,2013-11-20 07:52:00,
2013-11-20 01:57:00,49.8,12.3,30.09,South,180,0.0,0.0,22,0.00,,,0.00,WUHU21623XXSP,2013-11-20 07:57:00,
2013-11-20 02:02:00,49.6,13.0,30.09,SSE,157,0.0,4.0,23,0.00,,,0.00,WUHU21623XXSP,2013-11-20 08:02:00,
2013-11-20 02:07:00,49.6,13.0,30.08,SSE,157,3.1,4.0,23,0.00,,,0.00,WUHU21623XXSP,2013-11-20 08:07:00,
2013-11-20 02:12:00,49.6,13.0,30.09,SSE,157,4.0,4.0,23,0.00,,,0.00,WUHU21623XXSP,2013-11-20 08:12:00,
2013-11-20 02:17:00,49.3,12.7,30.10,WSW,247,0.0,6.9,23,0.00,,,0.00,WUHU21623XXSP,2013-11-20 08:17:00,
2013-11-20 02:22:00,49.5,12.7,30.10,South,180,0.0,6.9,23,0.00,,,0.00,WUHU21623XXSP,2013-11-20 08:22:00,
2013-11-20 02:27:00,49.3,12.8,30.10,SSE,157,0.0,0.2,23,0.00,,,0.00,WUHU21623XXSP,2013-11-20 08:27:00,
2013-11-20 02:32:00,49.3,13.6,30.10,South,180,0.0,8.1,24,0.00,,,0.00,WUHU21623XXSP,2013-11-20 08:32:00,
2013-11-20 02:37:00,49.3,13.6,30.10,South,180,4.3,8.1,24,0.00,,,0.00,WUHU21623XXSP,2013-11-20 08:37:00,
2013-11-20 02:42:00,49.1,14.4,30.10,SSE,157,0.0,4.3,25,0.00,,,0.00,WUHU21623XXSP,2013-11-20 08:42:00,
2013-11-20 02:47:00,48.9,14.3,30.10,SE,135,1.6,3.1,25,0.00,,,0.00,WUHU21623XXSP,2013-11-20 08:47:00,
2013-11-20 02:52:00,48.9,15.2,30.10,SSE,157,4.5,5.8,26,0.00,,,0.00,WUHU21623XXSP,2013-11-20 08:52:00,
2013-11-20 02:57:00,48.7,15.9,30.10,SSE,157,0.0,5.8,27,0.00,,,0.00,WUHU21623XXSP,2013-11-20 08:57:00,
2013-11-20 03:02:00,48.7,15.9,30.10,South,180,0.0,5.8,27,0.00,,,0.00,WUHU21623XXSP,2013-11-20 09:02:00,
2013-11-20 03:07:00,48.6,15.8,30.10,SSE,157,0.0,6.0,27,0.00,,,0.00,WUHU21623XXSP,2013-11-20 09:07:00,
2013-11-20 03:12:00,48.4,16.6,30.10,SSE,157,2.9,6.9,28,0.00,,,0.00,WUHU21623XXSP,2013-11-20 09:12:00,
2013-11-20 03:17:00,48.2,16.4,30.10,South,180,0.0,6.9,28,0.00,,,0.00,WUHU21623XXSP,2013-11-20 09:17:00,
2013-11-20 03:22:00,48.0,16.3,30.10,South,180,10.3,10.3,28,0.00,,,0.00,WUHU21623XXSP,2013-11-20 09:22:00,
2013-11-20 03:27:00,48.0,18.2,30.09,SSE,157,0.0,10.3,30,0.00,,,0.00,WUHU21623XXSP,2013-11-20 09:27:00,
2013-11-20 03:32:00,47.1,18.0,30.09,SSE,157,0.0,2.9,31,0.00,,,0.00,WUHU21623XXSP,2013-11-20 09:32:00,
2013-11-20 03:37:00,47.1,18.0,30.09,South,180,0.0,4.0,31,0.00,,,0.00,WUHU21623XXSP,2013-11-20 09:37:00,
2013-11-20 03:42:00,47.1,18.0,30.09,South,180,2.9,4.0,31,0.00,,,0.00,WUHU21623XXSP,2013-11-20 09:42:00,
2013-11-20 03:47:00,47.1,18.0,30.09,SSE,157,1.6,2.9,31,0.00,,,0.00,WUHU21623XXSP,2013-11-20 09:47:00,
2013-11-20 03:52:00,47.1,18.0,30.08,SSE,157,0.0,1.6,31,0.00,,,0.00,WUHU21623XXSP,2013-11-20 09:52:00,
2013-11-20 03:57:00,47.1,17.3,30.08,SSE,157,0.0,0.0,30,0.00,,,0.00,WUHU21623XXSP,2013-11-20 09:57:00,
2013-11-20 04:02:00,47.3,16.6,30.07,South,180,0.0,0.0,29,0.00,,,0.00,WUHU21623XXSP,2013-11-20 10:02:00,
2013-11-20 04:07:00,47.3,16.6,30.07,SE,135,0.0,0.0,29,0.00,,,0.00,WUHU21623XXSP,2013-11-20 10:07:00,
2013-11-20 04:12:00,47.3,16.6,30.07,SSE,157,0.0,0.0,29,0.00,,,0.00,WUHU21623XXSP,2013-11-20 10:12:00,
2013-11-20 04:17:00,47.1,17.3,30.06,SSE,157,0.0,0.0,30,0.00,,,0.00,WUHU21623XXSP,2013-11-20 10:17:00,
2013-11-20 04:22:00,47.1,17.3,30.06,SSE,157,0.0,0.0,30,0.00,,,0.00,WUHU21623XXSP,2013-11-20 10:22:00,
2013-11-20 04:27:00,46.8,17.0,30.07,SE,135,0.0,0.0,30,0.00,,,0.00,WUHU21623XXSP,2013-11-20 10:27:00,
2013-11-20 04:32:00,46.4,17.4,30.06,SSE,157,0.0,0.0,31,0.00,,,0.00,WUHU21623XXSP,2013-11-20 10:32:00,
2013-11-20 04:37:00,46.2,17.2,30.06,SSE,157,0.0,0.0,31,0.00,,,0.00,WUHU21623XXSP,2013-11-20 10:37:00,
2013-11-20 04:42:00,46.0,17.7,30.06,SE,135,0.0,0.0,32,0.00,,,0.00,WUHU21623XXSP,2013-11-20 10:42:00,
2013-11-20 04:47:00,45.5,17.2,30.06,SSE,157,0.0,0.0,32,0.00,,,0.00,WUHU21623XXSP,2013-11-20 10:47:00,
2013-11-20 04:52:00,45.1,16.9,30.06,SSE,157,0.0,0.0,32,0.00,,,0.00,WUHU21623XXSP,2013-11-20 10:52:00,
2013-11-20 04:57:00,45.0,17.4,30.06,SSE,157,0.0,0.0,33,0.00,,,0.00,WUHU21623XXSP,2013-11-20 10:57:00,
2013-11-20 05:02:00,45.0,17.4,30.06,SSE,157,0.0,0.0,33,0.00,,,0.00,WUHU21623XXSP,2013-11-20 11:02:00,
2013-11-20 05:07:00,45.1,17.6,30.05,SSE,157,0.0,0.0,33,0.00,,,0.00,WUHU21623XXSP,2013-11-20 11:07:00,
2013-11-20 05:12:00,45.1,17.6,30.05,SSE,157,0.0,0.0,33,0.00,,,0.00,WUHU21623XXSP,2013-11-20 11:12:00,
2013-11-20 05:17:00,45.5,17.2,30.05,SSE,157,0.0,8.5,32,0.00,,,0.00,WUHU21623XXSP,2013-11-20 11:17:00,
2013-11-20 05:22:00,45.7,17.4,30.05,SSE,157,0.0,8.5,32,0.00,,,0.00,WUHU21623XXSP,2013-11-20 11:22:00,
2013-11-20 05:27:00,45.7,17.4,30.05,SSE,157,0.0,0.0,32,0.00,,,0.00,WUHU21623XXSP,2013-11-20 11:27:00,
2013-11-20 05:32:00,46.0,17.7,30.06,SSE,157,0.0,0.0,32,0.00,,,0.00,WUHU21623XXSP,2013-11-20 11:32:00,
2013-11-20 05:37:00,46.0,18.4,30.05,SSE,157,0.0,0.0,33,0.00,,,0.00,WUHU21623XXSP,2013-11-20 11:37:00,
2013-11-20 05:42:00,46.0,18.4,30.05,SSE,157,0.0,0.0,33,0.00,,,0.00,WUHU21623XXSP,2013-11-20 11:42:00,
2013-11-20 05:47:00,46.0,17.7,30.05,SSE,157,0.0,0.0,32,0.00,,,0.00,WUHU21623XXSP,2013-11-20 11:47:00,
2013-11-20 05:52:00,46.0,17.7,30.05,South,180,0.0,0.0,32,0.00,,,0.00,WUHU21623XXSP,2013-11-20 11:52:00,
2013-11-20 05:57:00,46.0,18.4,30.05,South,180,0.0,2.5,33,0.00,,,0.00,WUHU21623XXSP,2013-11-20 11:57:00,
2013-11-20 06:02:00,46.0,17.7,30.05,SSE,157,0.0,2.5,32,0.00,,,0.00,WUHU21623XXSP,2013-11-20 12:02:00,
2013-11-20 06:07:00,46.0,17.7,30.05,South,180,0.0,5.1,32,0.00,,,0.00,WUHU21623XXSP,2013-11-20 12:07:00,
2013-11-20 06:12:00,46.0,17.7,30.04,SSE,157,0.0,5.1,32,0.00,,,0.00,WUHU21623XXSP,2013-11-20 12:12:00,
2013-11-20 06:17:00,45.7,17.4,30.04,South,180,0.0,0.0,32,0.00,,,0.00,WUHU21623XXSP,2013-11-20 12:17:00,
2013-11-20 06:22:00,45.7,17.4,30.04,SSE,157,0.0,0.0,32,0.00,,,0.00,WUHU21623XXSP,2013-11-20 12:22:00,
2013-11-20 06:27:00,45.7,16.7,30.04,SSE,157,0.2,0.2,31,0.00,,,0.00,WUHU21623XXSP,2013-11-20 12:27:00,
2013-11-20 06:32:00,45.9,17.5,30.04,SSE,157,0.0,0.2,32,0.00,,,0.00,WUHU21623XXSP,2013-11-20 12:32:00,
2013-11-20 06:37:00,45.9,17.5,30.04,South,180,0.0,0.0,32,0.00,,,0.00,WUHU21623XXSP,2013-11-20 12:37:00,
2013-11-20 06:42:00,46.0,17.0,30.04,SSE,157,0.0,0.0,31,0.00,,,0.00,WUHU21623XXSP,2013-11-20 12:42:00,
2013-11-20 06:47:00,46.0,17.0,30.05,South,180,0.0,0.0,31,0.00,,,0.00,WUHU21623XXSP,2013-11-20 12:47:00,
2013-11-20 06:52:00,46.2,17.2,30.05,South,180,0.0,0.0,31,0.00,,,0.00,WUHU21623XXSP,2013-11-20 12:52:00,
2013-11-20 06:57:00,46.2,17.2,30.05,SSE,157,6.9,6.9,31,0.00,,,0.00,WUHU21623XXSP,2013-11-20 12:57:00,
2013-11-20 07:02:00,46.2,17.2,30.05,SSE,157,0.0,6.9,31,0.00,,,0.00,WUHU21623XXSP,2013-11-20 13:02:00,
2013-11-20 07:07:00,46.2,17.2,30.05,SSE,157,0.0,0.0,31,0.00,,,0.00,WUHU21623XXSP,2013-11-20 13:07:00,
2013-11-20 07:12:00,46.2,17.2,30.05,South,180,0.0,0.0,31,0.00,,,0.00,WUHU21623XXSP,2013-11-20 13:12:00,
2013-11-20 07:17:00,46.2,17.2,30.06,SSE,157,0.0,0.0,31,0.00,,,0.00,WUHU21623XXSP,2013-11-20 13:17:00,
2013-11-20 07:22:00,46.2,17.2,30.05,SSE,157,0.0,0.0,31,0.00,,,0.00,WUHU21623XXSP,2013-11-20 13:22:00,
2013-11-20 07:27:00,46.2,17.2,30.06,SSE,157,0.0,0.0,31,0.00,,,0.00,WUHU21623XXSP,2013-11-20 13:27:00,
2013-11-20 07:32:00,46.4,17.4,30.06,SSE,157,0.0,0.9,31,0.00,,,0.00,WUHU21623XXSP,2013-11-20 13:32:00,
2013-11-20 07:37:00,46.6,17.5,30.06,SSE,157,0.0,0.9,31,0.00,,,0.00,WUHU21623XXSP,2013-11-20 13:37:00,
2013-11-20 07:42:00,46.8,18.4,30.05,SSE,157,0.0,0.0,32,0.00,,,0.00,WUHU21623XXSP,2013-11-20 13:42:00,
2013-11-20 07:47:00,46.9,18.5,30.05,SSE,157,0.0,0.0,32,0.00,,,0.00,WUHU21623XXSP,2013-11-20 13:47:00,
2013-11-20 07:52:00,47.1,18.7,30.06,SW,225,0.0,0.0,32,0.00,,,0.00,WUHU21623XXSP,2013-11-20 13:52:00,
2013-11-20 07:57:00,47.3,18.8,30.06,South,180,0.0,0.0,32,0.00,,,0.00,WUHU21623XXSP,2013-11-20 13:57:00,
2013-11-20 08:02:00,47.8,19.3,30.06,SE,135,9.6,9.6,32,0.00,,,0.00,WUHU21623XXSP,2013-11-20 14:02:00,
2013-11-20 08:07:00,47.8,20.0,30.07,SSE,157,0.0,9.6,33,0.00,,,0.00,WUHU21623XXSP,2013-11-20 14:07:00,
2013-11-20 08:12:00,48.0,20.2,30.06,SSE,157,0.0,5.4,33,0.00,,,0.00,WUHU21623XXSP,2013-11-20 14:12:00,
2013-11-20 08:17:00,48.0,20.2,30.06,SSE,157,0.0,0.0,33,0.00,,,0.00,WUHU21623XXSP,2013-11-20 14:17:00,
2013-11-20 08:22:00,48.0,20.2,30.06,SSE,157,0.0,0.0,33,0.00,,,0.00,WUHU21623XXSP,2013-11-20 14:22:00,
2013-11-20 08:27:00,48.2,20.3,30.06,SSE,157,0.0,0.0,33,0.00,,,0.00,WUHU21623XXSP,2013-11-20 14:27:00,
2013-11-20 08:32:00,48.4,20.5,30.06,SSE,157,3.1,3.1,33,0.00,,,0.00,WUHU21623XXSP,2013-11-20 14:32:00,
2013-11-20 08:37:00,48.4,20.5,30.06,SSE,157,0.0,3.1,33,0.00,,,0.00,WUHU21623XXSP,2013-11-20 14:37:00,
2013-11-20 08:42:00,48.7,20.8,30.06,SSE,157,0.0,2.9,33,0.00,,,0.00,WUHU21623XXSP,2013-11-20 14:42:00,
2013-11-20 08:47:00,48.7,20.8,30.06,SSE,157,0.0,2.9,33,0.00,,,0.00,WUHU21623XXSP,2013-11-20 14:47:00,
2013-11-20 08:52:00,48.7,21.4,30.06,South,180,0.0,4.7,34,0.00,,,0.00,WUHU21623XXSP,2013-11-20 14:52:00,
2013-11-20 08:57:00,48.9,20.9,30.06,SSE,157,0.4,4.7,33,0.00,,,0.00,WUHU21623XXSP,2013-11-20 14:57:00,
2013-11-20 09:02:00,48.9,20.9,30.06,SSE,157,2.9,2.9,33,0.00,,,0.00,WUHU21623XXSP,2013-11-20 15:02:00,
2013-11-20 09:07:00,49.1,21.1,30.06,SSE,157,0.0,4.5,33,0.00,,,0.00,WUHU21623XXSP,2013-11-20 15:07:00,
2013-11-20 09:12:00,49.3,21.9,30.06,SSE,157,0.0,4.5,34,0.00,,,0.00,WUHU21623XXSP,2013-11-20 15:12:00,
2013-11-20 09:17:00,49.6,22.2,30.06,SSE,157,0.0,0.0,34,0.00,,,0.00,WUHU21623XXSP,2013-11-20 15:17:00,
2013-11-20 09:22:00,49.6,22.2,30.07,SSE,157,0.0,0.0,34,0.00,,,0.00,WUHU21623XXSP,2013-11-20 15:22:00,
2013-11-20 09:27:00,49.8,22.3,30.06,SSE,157,2.5,6.7,34,0.00,,,0.00,WUHU21623XXSP,2013-11-20 15:27:00,
2013-11-20 09:32:00,50.2,22.7,30.07,South,180,0.0,6.7,34,0.00,,,0.00,WUHU21623XXSP,2013-11-20 15:32:00,
2013-11-20 09:37:00,50.5,22.3,30.07,SSE,157,2.7,8.1,33,0.00,,,0.00,WUHU21623XXSP,2013-11-20 15:37:00,
2013-11-20 09:42:00,51.3,22.3,30.08,SW,225,0.0,8.1,32,0.00,,,0.00,WUHU21623XXSP,2013-11-20 15:42:00,
2013-11-20 09:47:00,51.6,22.6,30.07,South,180,0.0,1.6,32,0.00,,,0.00,WUHU21623XXSP,2013-11-20 15:47:00,
2013-11-20 09:52:00,51.8,22.7,30.07,SE,135,0.0,0.0,32,0.00,,,0.00,WUHU21623XXSP,2013-11-20 15:52:00,
2013-11-20 09:57:00,52.5,23.4,30.07,SSE,157,0.0,0.0,32,0.00,,,0.00,WUHU21623XXSP,2013-11-20 15:57:00,
2013-11-20 10:02:00,53.2,23.4,30.08,South,180,5.6,5.6,31,0.00,,,0.00,WUHU21623XXSP,2013-11-20 16:02:00,
2013-11-20 10:07:00,53.4,23.5,30.07,SSW,202,0.0,5.6,31,0.00,,,0.00,WUHU21623XXSP,2013-11-20 16:07:00,
2013-11-20 10:12:00,53.8,23.8,30.07,SSE,157,0.0,0.0,30,0.00,,,0.00,WUHU21623XXSP,2013-11-20 16:12:00,
2013-11-20 10:17:00,54.1,23.4,30.07,SSE,157,0.0,6.3,30,0.00,,,0.00,WUHU21623XXSP,2013-11-20 16:17:00,
2013-11-20 10:22:00,55.0,24.2,30.06,SSE,157,5.6,6.3,30,0.00,,,0.00,WUHU21623XXSP,2013-11-20 16:22:00,
2013-11-20 10:27:00,56.1,24.1,30.06,SSE,157,0.0,5.6,29,0.00,,,0.00,WUHU21623XXSP,2013-11-20 16:27:00,
2013-11-20 10:32:00,57.4,24.3,30.06,SSE,157,0.0,0.0,28,0.00,,,0.00,WUHU21623XXSP,2013-11-20 16:32:00,
2013-11-20 10:37:00,58.6,24.4,30.06,SSE,157,6.0,6.0,27,0.00,,,0.00,WUHU21623XXSP,2013-11-20 16:37:00,
2013-11-20 10:42:00,59.5,23.3,30.06,SSE,157,8.5,8.5,25,0.00,,,0.00,WUHU21623XXSP,2013-11-20 16:42:00,
2013-11-20 10:47:00,59.9,23.6,30.06,SSE,157,5.4,8.5,25,0.00,,,0.00,WUHU21623XXSP,2013-11-20 16:47:00,
2013-11-20 10:52:00,59.7,23.4,30.06,SSE,157,3.8,9.2,25,0.00,,,0.00,WUHU21623XXSP,2013-11-20 16:52:00,
2013-11-20 10:57:00,59.2,23.9,30.05,SSE,157,0.0,9.2,26,0.00,,,0.00,WUHU21623XXSP,2013-11-20 16:57:00,
2013-11-20 11:02:00,59.4,23.1,30.06,SSE,157,3.1,3.8,25,0.00,,,0.00,WUHU21623XXSP,2013-11-20 17:02:00,
2013-11-20 11:07:00,59.2,23.0,30.05,South,180,6.9,6.9,25,0.00,,,0.00,WUHU21623XXSP,2013-11-20 17:07:00,
2013-11-20 11:12:00,58.8,22.7,30.05,South,180,0.0,6.9,25,0.00,,,0.00,WUHU21623XXSP,2013-11-20 17:12:00,
2013-11-20 11:17:00,58.8,22.7,30.05,SSW,202,0.0,2.7,25,0.00,,,0.00,WUHU21623XXSP,2013-11-20 17:17:00,
2013-11-20 11:22:00,58.6,22.5,30.05,SSW,202,0.0,0.0,25,0.00,,,0.00,WUHU21623XXSP,2013-11-20 17:22:00,
2013-11-20 11:27:00,58.8,22.7,30.05,South,180,0.0,6.5,25,0.00,,,0.00,WUHU21623XXSP,2013-11-20 17:27:00,
2013-11-20 11:32:00,59.2,23.0,30.05,SSE,157,4.9,6.5,25,0.00,,,0.00,WUHU21623XXSP,2013-11-20 17:32:00,
2013-11-20 11:37:00,59.4,23.1,30.05,SW,225,0.0,4.9,25,0.00,,,0.00,WUHU21623XXSP,2013-11-20 17:37:00,
2013-11-20 11:42:00,59.9,23.6,30.04,SSE,157,0.0,7.4,25,0.00,,,0.00,WUHU21623XXSP,2013-11-20 17:42:00,
2013-11-20 11:47:00,59.7,22.5,30.04,SSE,157,7.4,7.4,24,0.00,,,0.00,WUHU21623XXSP,2013-11-20 17:47:00,
2013-11-20 11:52:00,59.7,23.4,30.03,SSW,202,6.0,7.4,25,0.00,,,0.00,WUHU21623XXSP,2013-11-20 17:52:00,
2013-11-20 11:57:00,59.5,23.3,30.03,South,180,0.0,9.4,25,0.00,,,0.00,WUHU21623XXSP,2013-11-20 17:57:00,
2013-11-20 12:02:00,59.4,23.1,30.02,SSE,157,5.8,9.4,25,0.00,,,0.00,WUHU21623XXSP,2013-11-20 18:02:00,
2013-11-20 12:07:00,58.8,22.7,30.02,SSE,157,5.1,5.8,25,0.00,,,0.00,WUHU21623XXSP,2013-11-20 18:07:00,
2013-11-20 12:12:00,58.6,22.5,30.02,SE,135,3.6,5.6,25,0.00,,,0.00,WUHU21623XXSP,2013-11-20 18:12:00,
2013-11-20 12:17:00,58.1,23.0,30.02,SE,135,12.5,12.5,26,0.00,,,0.00,WUHU21623XXSP,2013-11-20 18:17:00,
2013-11-20 12:22:00,57.7,22.7,30.02,SSE,157,0.0,12.5,26,0.00,,,0.00,WUHU21623XXSP,2013-11-20 18:22:00,
2013-11-20 12:27:00,57.6,22.5,30.01,SSE,157,6.7,8.3,26,0.00,,,0.00,WUHU21623XXSP,2013-11-20 18:27:00,
2013-11-20 12:32:00,57.6,23.5,30.01,SE,135,0.0,6.7,27,0.00,,,0.00,WUHU21623XXSP,2013-11-20 18:32:00,
2013-11-20 12:37:00,57.9,23.8,30.00,SSW,202,5.4,6.7,27,0.00,,,0.00,WUHU21623XXSP,2013-11-20 18:37:00,
2013-11-20 12:42:00,58.1,24.9,30.00,SSE,157,7.6,7.6,28,0.00,,,0.00,WUHU21623XXSP,2013-11-20 18:42:00,
2013-11-20 12:47:00,58.5,25.3,30.00,SE,135,8.1,8.1,28,0.00,,,0.00,WUHU21623XXSP,2013-11-20 18:47:00,
2013-11-20 12:52:00,58.3,25.1,30.00,SE,135,7.6,10.3,28,0.00,,,0.00,WUHU21623XXSP,2013-11-20 18:52:00,
2013-11-20 12:57:00,58.3,26.1,30.00,SE,135,7.2,10.3,29,0.00,,,0.00,WUHU21623XXSP,2013-11-20 18:57:00,
2013-11-20 13:02:00,58.5,25.3,30.00,SSW,202,0.0,7.2,28,0.00,,,0.00,WUHU21623XXSP,2013-11-20 19:02:00,
2013-11-20 13:07:00,58.6,26.4,30.00,SSE,157,8.1,8.1,29,0.00,,,0.00,WUHU21623XXSP,2013-11-20 19:07:00,
2013-11-20 13:12:00,58.8,26.5,30.00,West,270,0.0,8.1,29,0.00,,,0.00,WUHU21623XXSP,2013-11-20 19:12:00,
2013-11-20 13:17:00,58.8,26.5,29.99,South,180,3.8,6.9,29,0.00,,,0.00,WUHU21623XXSP,2013-11-20 19:17:00,
2013-11-20 13:22:00,58.8,26.5,29.99,SSE,157,0.0,6.9,29,0.00,,,0.00,WUHU21623XXSP,2013-11-20 19:22:00,
2013-11-20 13:27:00,58.8,27.5,29.99,South,180,0.7,0.7,30,0.00,,,0.00,WUHU21623XXSP,2013-11-20 19:27:00,
2013-11-20 13:32:00,58.8,27.5,29.99,SE,135,2.0,4.7,30,0.00,,,0.00,WUHU21623XXSP,2013-11-20 19:32:00,
2013-11-20 13:37:00,58.5,27.2,29.98,SSE,157,6.7,6.7,30,0.00,,,0.00,WUHU21623XXSP,2013-11-20 19:37:00,
2013-11-20 13:42:00,58.1,26.9,29.98,SSE,157,0.0,6.7,30,0.00,,,0.00,WUHU21623XXSP,2013-11-20 19:42:00,
2013-11-20 13:47:00,58.3,27.7,29.98,SSW,202,5.8,10.5,31,0.00,,,0.00,WUHU21623XXSP,2013-11-20 19:47:00,
2013-11-20 13:52:00,58.6,28.1,29.97,SW,225,2.7,10.5,31,0.00,,,0.00,WUHU21623XXSP,2013-11-20 19:52:00,
2013-11-20 13:57:00,58.8,27.5,29.97,SSE,157,5.6,9.6,30,0.00,,,0.00,WUHU21623XXSP,2013-11-20 19:57:00,
2013-11-20 14:02:00,58.6,27.4,29.98,SSE,157,5.6,5.6,30,0.00,,,0.00,WUHU21623XXSP,2013-11-20 20:02:00,
2013-11-20 14:08:00,58.8,28.2,29.97,SE,135,4.7,7.2,31,0.00,,,0.00,WUHU21623XXSP,2013-11-20 20:08:00,
2013-11-20 14:13:00,59.2,28.5,29.98,South,180,0.0,7.2,31,0.00,,,0.00,WUHU21623XXSP,2013-11-20 20:13:00,
2013-11-20 14:18:00,59.7,29.0,29.97,SE,135,11.9,11.9,31,0.00,,,0.00,WUHU21623XXSP,2013-11-20 20:18:00,
2013-11-20 14:23:00,59.5,28.1,29.97,South,180,0.0,11.9,30,0.00,,,0.00,WUHU21623XXSP,2013-11-20 20:23:00,
2013-11-20 14:28:00,59.0,28.4,29.97,SSE,157,0.0,6.3,31,0.00,,,0.00,WUHU21623XXSP,2013-11-20 20:28:00,
2013-11-20 14:33:00,58.8,28.2,29.96,SSE,157,0.0,2.0,31,0.00,,,0.00,WUHU21623XXSP,2013-11-20 20:33:00,
2013-11-20 14:38:00,58.5,28.6,29.96,SW,225,0.0,0.0,32,0.00,,,0.00,WUHU21623XXSP,2013-11-20 20:38:00,
2013-11-20 14:43:00,57.9,28.1,29.97,South,180,0.9,0.9,32,0.00,,,0.00,WUHU21623XXSP,2013-11-20 20:43:00,
2013-11-20 14:48:00,57.7,27.9,29.96,SSW,202,5.1,5.1,32,0.00,,,0.00,WUHU21623XXSP,2013-11-20 20:48:00,
2013-11-20 14:53:00,57.0,27.5,29.96,SSE,157,10.5,10.5,32,0.00,,,0.00,WUHU21623XXSP,2013-11-20 20:53:00,
2013-11-20 14:58:00,56.8,27.8,29.96,SSE,157,3.4,10.5,33,0.00,,,0.00,WUHU21623XXSP,2013-11-20 20:58:00,
2013-11-20 15:03:00,56.5,27.5,29.96,South,180,4.9,10.5,33,0.00,,,0.00,WUHU21623XXSP,2013-11-20 21:03:00,
2013-11-20 15:08:00,56.1,27.9,29.96,South,180,0.0,4.9,34,0.00,,,0.00,WUHU21623XXSP,2013-11-20 21:08:00,
2013-11-20 15:13:00,55.9,28.4,29.96,SSE,157,0.0,0.0,35,0.00,,,0.00,WUHU21623XXSP,2013-11-20 21:13:00,
2013-11-20 15:18:00,55.9,28.4,29.96,SE,135,5.8,5.8,36,0.00,,,0.00,WUHU21623XXSP,2013-11-20 21:18:00,
2013-11-20 15:23:00,55.8,29.0,29.96,SSE,157,0.0,5.8,36,0.00,,,0.00,WUHU21623XXSP,2013-11-20 21:23:00,
2013-11-20 15:28:00,55.8,29.0,29.96,South,180,0.0,0.7,36,0.00,,,0.00,WUHU21623XXSP,2013-11-20 21:28:00,
2013-11-20 15:33:00,55.8,29.0,29.96,South,180,0.0,0.0,36,0.00,,,0.00,WUHU21623XXSP,2013-11-20 21:33:00,
2013-11-20 15:38:00,55.9,29.8,29.96,SSE,157,0.0,0.0,37,0.00,,,0.00,WUHU21623XXSP,2013-11-20 21:38:00,
2013-11-20 15:43:00,56.1,30.0,29.96,SSE,157,0.0,0.0,37,0.00,,,0.00,WUHU21623XXSP,2013-11-20 21:43:00,
2013-11-20 15:48:00,56.3,30.2,29.96,SSE,157,0.0,0.0,37,0.00,,,0.00,WUHU21623XXSP,2013-11-20 21:48:00,
2013-11-20 15:53:00,57.0,30.8,29.96,SSE,157,0.0,0.0,37,0.00,,,0.00,WUHU21623XXSP,2013-11-20 21:53:00,
2013-11-20 15:58:00,57.4,31.1,29.96,South,180,0.0,0.4,37,0.00,,,0.00,WUHU21623XXSP,2013-11-20 21:58:00,
2013-11-20 16:03:00,57.6,31.3,29.96,South,180,0.0,0.4,37,0.00,,,0.00,WUHU21623XXSP,2013-11-20 22:03:00,
2013-11-20 16:08:00,57.4,30.4,29.96,SSE,157,5.4,5.4,36,0.00,,,0.00,WUHU21623XXSP,2013-11-20 22:08:00,
2013-11-20 16:13:00,57.2,30.4,29.97,SSE,157,0.0,5.4,37,0.00,,,0.00,WUHU21623XXSP,2013-11-20 22:13:00,
2013-11-20 16:18:00,57.0,30.8,29.97,SSE,157,10.5,10.5,37,0.00,,,0.00,WUHU21623XXSP,2013-11-20 22:18:00,
2013-11-20 16:23:00,57.0,30.1,29.96,SSE,157,3.4,11.0,36,0.00,,,0.00,WUHU21623XXSP,2013-11-20 22:23:00,
2013-11-20 16:28:00,57.0,30.1,29.97,SE,135,0.0,11.0,36,0.00,,,0.00,WUHU21623XXSP,2013-11-20 22:28:00,
2013-11-20 16:33:00,57.0,30.6,29.97,SSW,202,0.0,0.0,37,0.00,,,0.00,WUHU21623XXSP,2013-11-20 22:33:00,
2013-11-20 16:38:00,56.8,30.6,29.98,SSE,157,0.0,0.0,37,0.00,,,0.00,WUHU21623XXSP,2013-11-20 22:38:00,
2013-11-20 16:43:00,56.8,30.6,29.98,South,180,0.0,0.0,37,0.00,,,0.00,WUHU21623XXSP,2013-11-20 22:43:00,
2013-11-20 16:48:00,56.8,29.9,29.98,SSE,157,0.0,0.0,36,0.00,,,0.00,WUHU21623XXSP,2013-11-20 22:48:00,
2013-11-20 16:53:00,56.8,29.9,29.99,SSE,157,0.0,0.0,36,0.00,,,0.00,WUHU21623XXSP,2013-11-20 22:53:00,
2013-11-20 16:58:00,56.8,30.6,29.98,SSE,157,0.0,0.0,37,0.00,,,0.00,WUHU21623XXSP,2013-11-20 22:58:00,
2013-11-20 17:03:00,56.8,30.6,29.98,SSE,157,0.0,0.0,37,0.00,,,0.00,WUHU21623XXSP,2013-11-20 23:03:00,
2013-11-20 17:08:00,56.7,30.5,29.98,SSE,157,0.0,0.0,37,0.00,,,0.00,WUHU21623XXSP,2013-11-20 23:08:00,
2013-11-20 17:13:00,56.5,30.3,29.98,SE,135,0.0,0.0,37,0.00,,,0.00,WUHU21623XXSP,2013-11-20 23:13:00,
2013-11-20 17:18:00,56.5,30.3,29.98,SSE,157,0.0,0.0,37,0.00,,,0.00,WUHU21623XXSP,2013-11-20 23:18:00,
2013-11-20 17:23:00,56.5,30.3,29.98,SE,135,0.0,0.0,37,0.00,,,0.00,WUHU21623XXSP,2013-11-20 23:23:00,
2013-11-20 17:28:00,56.5,31.0,29.99,SE,135,0.0,0.0,38,0.00,,,0.00,WUHU21623XXSP,2013-11-20 23:28:00,
2013-11-20 17:33:00,56.3,30.9,29.99,SSE,157,0.0,0.0,38,0.00,,,0.00,WUHU21623XXSP,2013-11-20 23:33:00,
2013-11-20 17:38:00,56.3,30.9,29.99,SSE,157,0.0,0.0,38,0.00,,,0.00,WUHU21623XXSP,2013-11-20 23:38:00,
2013-11-20 17:43:00,56.1,28.4,29.99,SSE,157,0.0,0.0,38,0.00,,,0.00,WUHU21623XXSP,2013-11-20 23:43:00,
2013-11-20 17:48:00,56.1,30.7,29.99,SE,135,0.0,0.0,38,0.00,,,0.00,WUHU21623XXSP,2013-11-20 23:48:00,
2013-11-20 17:53:00,56.1,30.7,30.00,SE,135,0.0,0.0,39,0.00,,,0.00,WUHU21623XXSP,2013-11-20 23:53:00,
2013-11-20 17:58:00,56.1,31.4,29.99,SSE,157,0.0,0.0,39,0.00,,,0.00,WUHU21623XXSP,2013-11-20 23:58:00,
2013-11-20 18:03:00,56.1,31.4,29.99,SE,135,0.0,0.0,39,0.00,,,0.00,WUHU21623XXSP,2013-11-21 00:03:00,
2013-11-20 18:08:00,56.1,31.4,30.00,SE,135,0.0,0.0,39,0.00,,,0.00,WUHU21623XXSP,2013-11-21 00:08:00,
2013-11-20 18:13:00,55.9,31.2,30.00,SSE,157,7.2,7.2,39,0.00,,,0.00,WUHU21623XXSP,2013-11-21 00:13:00,
2013-11-20 18:18:00,55.9,31.2,30.00,SSE,157,6.9,7.2,39,0.00,,,0.00,WUHU21623XXSP,2013-11-21 00:18:00,
2013-11-20 18:23:00,55.9,31.2,30.00,SSE,157,0.0,7.2,39,0.00,,,0.00,WUHU21623XXSP,2013-11-21 00:23:00,
2013-11-20 18:28:00,55.9,31.2,29.99,SSE,157,2.5,2.5,39,0.00,,,0.00,WUHU21623XXSP,2013-11-21 00:28:00,
2013-11-20 18:33:00,55.8,31.1,30.00,SE,135,11.0,11.0,39,0.00,,,0.00,WUHU21623XXSP,2013-11-21 00:33:00,
2013-11-20 18:38:00,55.8,31.1,30.00,SE,135,0.0,11.0,39,0.00,,,0.00,WUHU21623XXSP,2013-11-21 00:38:00,
2013-11-20 18:43:00,55.8,31.1,30.00,South,180,0.0,11.0,39,0.00,,,0.00,WUHU21623XXSP,2013-11-21 00:43:00,
2013-11-20 18:48:00,55.8,31.1,29.99,SSE,157,0.0,0.0,39,0.00,,,0.00,WUHU21623XXSP,2013-11-21 00:48:00,
2013-11-20 18:53:00,55.8,31.1,29.99,South,180,5.8,5.8,39,0.00,,,0.00,WUHU21623XXSP,2013-11-21 00:53:00,
2013-11-20 18:58:00,55.8,31.1,29.99,SSE,157,0.0,5.8,39,0.00,,,0.00,WUHU21623XXSP,2013-11-21 00:58:00,
2013-11-20 19:03:00,55.9,31.2,30.00,SSE,157,7.4,7.4,39,0.00,,,0.00,WUHU21623XXSP,2013-11-21 01:03:00,
2013-11-20 19:08:00,55.9,31.2,30.00,SSE,157,2.5,7.4,39,0.00,,,0.00,WUHU21623XXSP,2013-11-21 01:08:00,
2013-11-20 19:13:00,56.1,31.2,30.00,South,180,0.0,7.4,39,0.00,,,0.00,WUHU21623XXSP,2013-11-21 01:13:00,
2013-11-20 19:18:00,55.9,31.2,30.00,South,180,0.0,0.0,39,0.00,,,0.00,WUHU21623XXSP,2013-11-21 01:18:00,
2013-11-20 19:23:00,55.9,31.9,30.00,South,180,0.0,0.0,40,0.00,,,0.00,WUHU21623XXSP,2013-11-21 01:23:00,
2013-11-20 19:28:00,55.9,31.9,29.99,South,180,0.0,0.0,40,0.00,,,0.00,WUHU21623XXSP,2013-11-21 01:28:00,
2013-11-20 19:33:00,55.9,31.9,29.99,South,180,0.0,0.0,40,0.00,,,0.00,WUHU21623XXSP,2013-11-21 01:33:00,
2013-11-20 19:38:00,55.9,31.9,30.00,South,180,0.0,0.0,40,0.00,,,0.00,WUHU21623XXSP,2013-11-21 01:38:00,
2013-11-20 19:43:00,55.9,32.5,30.00,SSE,157,0.0,0.0,41,0.00,,,0.00,WUHU21623XXSP,2013-11-21 01:43:00,
2013-11-20 19:48:00,56.1,32.7,30.00,SSE,157,0.0,0.0,41,0.00,,,0.00,WUHU21623XXSP,2013-11-21 01:48:00,
2013-11-20 19:53:00,56.1,33.2,30.00,South,180,0.0,0.0,42,0.00,,,0.00,WUHU21623XXSP,2013-11-21 01:53:00,
2013-11-20 19:58:00,56.1,33.2,30.00,SSE,157,0.0,0.0,42,0.00,,,0.00,WUHU21623XXSP,2013-11-21 01:58:00,
2013-11-20 20:03:00,56.1,33.2,30.00,South,180,0.0,0.0,42,0.00,,,0.00,WUHU21623XXSP,2013-11-21 02:03:00,
2013-11-20 20:08:00,56.3,33.4,30.00,South,180,0.0,0.0,42,0.00,,,0.00,WUHU21623XXSP,2013-11-21 02:08:00,
2013-11-20 20:13:00,56.3,34.0,30.01,SSE,157,0.0,0.0,43,0.00,,,0.00,WUHU21623XXSP,2013-11-21 02:13:00,
2013-11-20 20:18:00,56.5,34.1,30.00,SSE,157,0.0,0.0,43,0.00,,,0.00,WUHU21623XXSP,2013-11-21 02:18:00,
2013-11-20 20:23:00,56.5,34.1,30.00,SSE,157,0.0,0.0,43,0.00,,,0.00,WUHU21623XXSP,2013-11-21 02:23:00,
2013-11-20 20:28:00,56.8,34.5,30.01,South,180,0.0,0.0,43,0.00,,,0.00,WUHU21623XXSP,2013-11-21 02:28:00,
2013-11-20 20:33:00,56.8,35.0,30.01,South,180,0.0,0.0,43,0.00,,,0.00,WUHU21623XXSP,2013-11-21 02:33:00,
2013-11-20 20:38:00,56.8,35.0,30.01,SSE,157,0.0,0.0,44,0.00,,,0.00,WUHU21623XXSP,2013-11-21 02:38:00,
2013-11-20 20:43:00,56.8,35.0,30.02,SSE,157,0.0,0.0,44,0.00,,,0.00,WUHU21623XXSP,2013-11-21 02:43:00,
2013-11-20 20:48:00,56.8,35.0,30.02,South,180,0.0,0.0,44,0.00,,,0.00,WUHU21623XXSP,2013-11-21 02:48:00,
2013-11-20 20:53:00,56.8,35.0,30.02,South,180,0.0,0.0,45,0.00,,,0.00,WUHU21623XXSP,2013-11-21 02:53:00,
2013-11-20 20:58:00,56.8,35.6,30.03,South,180,0.0,0.0,45,0.00,,,0.00,WUHU21623XXSP,2013-11-21 02:58:00,
2013-11-20 21:03:00,56.8,35.6,30.03,South,180,0.0,0.0,45,0.00,,,0.00,WUHU21623XXSP,2013-11-21 03:03:00,
2013-11-20 21:08:00,56.8,35.6,30.03,SSE,157,0.0,0.0,45,0.00,,,0.00,WUHU21623XXSP,2013-11-21 03:08:00,
2013-11-20 21:13:00,56.5,35.8,30.03,South,180,0.0,0.0,46,0.00,,,0.00,WUHU21623XXSP,2013-11-21 03:13:00,
2013-11-20 21:18:00,56.5,35.8,30.02,WSW,247,0.0,0.0,46,0.00,,,0.00,WUHU21623XXSP,2013-11-21 03:18:00,
2013-11-20 21:23:00,56.5,36.4,30.03,SSE,157,0.0,0.0,47,0.00,,,0.00,WUHU21623XXSP,2013-11-21 03:23:00,
2013-11-20 21:28:00,56.3,36.2,30.03,SSE,157,0.0,0.0,47,0.00,,,0.00,WUHU21623XXSP,2013-11-21 03:28:00,
2013-11-20 21:33:00,56.1,36.6,30.03,SSW,202,0.0,0.0,48,0.00,,,0.00,WUHU21623XXSP,2013-11-21 03:33:00,
2013-11-20 21:38:00,55.9,36.4,30.02,SSE,157,0.0,0.0,48,0.00,,,0.00,WUHU21623XXSP,2013-11-21 03:38:00,
2013-11-20 21:43:00,55.9,36.4,30.02,SSE,157,0.0,0.0,48,0.00,,,0.00,WUHU21623XXSP,2013-11-21 03:43:00,
2013-11-20 21:48:00,55.9,37.0,30.03,SSE,157,0.0,0.0,49,0.00,,,0.00,WUHU21623XXSP,2013-11-21 03:48:00,
2013-11-20 21:53:00,55.9,37.0,30.03,South,180,0.0,0.0,49,0.00,,,0.00,WUHU21623XXSP,2013-11-21 03:53:00,
2013-11-20 21:58:00,55.8,37.4,30.03,South,180,0.0,0.0,50,0.00,,,0.00,WUHU21623XXSP,2013-11-21 03:58:00,
2013-11-20 22:03:00,55.8,36.8,30.03,South,180,0.0,0.0,49,0.00,,,0.00,WUHU21623XXSP,2013-11-21 04:03:00,
2013-11-20 22:08:00,55.6,36.6,30.03,South,180,0.0,0.0,49,0.00,,,0.00,WUHU21623XXSP,2013-11-21 04:08:00,
2013-11-20 22:13:00,55.4,37.2,30.03,South,180,0.0,0.0,49,0.00,,,0.00,WUHU21623XXSP,2013-11-21 04:13:00,
2013-11-20 22:18:00,55.2,36.9,30.03,SSE,157,0.0,0.0,50,0.00,,,0.00,WUHU21623XXSP,2013-11-21 04:18:00,
2013-11-20 22:23:00,55.2,36.9,30.03,South,180,0.0,0.0,50,0.00,,,0.00,WUHU21623XXSP,2013-11-21 04:23:00,
2013-11-20 22:28:00,55.2,36.9,30.03,South,180,0.0,0.0,50,0.00,,,0.00,WUHU21623XXSP,2013-11-21 04:28:00,
2013-11-20 22:33:00,55.2,36.9,30.03,SSE,157,0.0,0.0,50,0.00,,,0.00,WUHU21623XXSP,2013-11-21 04:33:00,
2013-11-20 22:38:00,55.2,36.9,30.04,SSE,157,0.0,0.0,50,0.00,,,0.00,WUHU21623XXSP,2013-11-21 04:38:00,
2013-11-20 22:43:00,55.2,36.9,30.04,South,180,0.0,0.0,50,0.00,,,0.00,WUHU21623XXSP,2013-11-21 04:43:00,
2013-11-20 22:48:00,55.2,36.9,30.03,SSE,157,0.0,0.0,50,0.00,,,0.00,WUHU21623XXSP,2013-11-21 04:48:00,
2013-11-20 22:53:00,55.4,37.0,30.03,SSE,157,0.0,0.0,50,0.00,,,0.00,WUHU21623XXSP,2013-11-21 04:53:00,
2013-11-20 22:58:00,55.6,37.2,30.03,SSE,157,0.0,0.0,50,0.00,,,0.00,WUHU21623XXSP,2013-11-21 04:58:00,
2013-11-20 23:03:00,55.6,37.2,30.03,SSE,157,1.3,1.3,50,0.00,,,0.00,WUHU21623XXSP,2013-11-21 05:03:00,
2013-11-20 23:08:00,55.4,37.0,30.03,SSE,157,0.0,1.3,50,0.00,,,0.00,WUHU21623XXSP,2013-11-21 05:08:00,
2013-11-20 23:13:00,55.2,36.9,30.03,SSE,157,0.0,0.0,50,0.00,,,0.00,WUHU21623XXSP,2013-11-21 05:13:00,
2013-11-20 23:18:00,55.2,36.9,30.03,SSE,157,0.0,0.0,50,0.00,,,0.00,WUHU21623XXSP,2013-11-21 05:18:00,
2013-11-20 23:23:00,55.2,36.9,30.03,SSE,157,0.0,0.0,50,0.00,,,0.00,WUHU21623XXSP,2013-11-21 05:23:00,
2013-11-20 23:28:00,55.4,37.0,30.03,South,180,0.0,0.0,50,0.00,,,0.00,WUHU21623XXSP,2013-11-21 05:28:00,
2013-11-20 23:33:00,55.6,37.2,30.03,SSE,157,0.0,0.0,50,0.00,,,0.00,WUHU21623XXSP,2013-11-21 05:33:00,
2013-11-20 23:38:00,55.4,37.0,30.03,South,180,0.0,0.0,50,0.00,,,0.00,WUHU21623XXSP,2013-11-21 05:38:00,
2013-11-20 23:43:00,55.2,36.9,30.04,SSE,157,0.0,0.0,50,0.00,,,0.00,WUHU21623XXSP,2013-11-21 05:43:00,
2013-11-20 23:48:00,55.2,36.9,30.04,South,180,0.0,0.0,50,0.00,,,0.00,WUHU21623XXSP,2013-11-21 05:48:00,
2013-11-20 23:53:00,55.2,36.9,30.04,South,180,0.0,0.0,50,0.00,,,0.00,WUHU21623XXSP,2013-11-21 05:53:00,
2013-11-20 23:58:00,55.2,36.9,30.04,SSE,157,0.0,0.0,50,0.00,,,0.00,WUHU21623XXSP,2013-11-21 05:58:00,